W7PLC Weather Reports


time (UTC)temp
F
wind
direction
speed
knots
gust
knots
rain 1hr
in
rain 24hr
in
rain mn
in
humidity
%
barometer
mb
20260502170313 59 4 0.0 0.0 0.00 0.00 0.00 80 1015.3
20260502164300 55 53 0.9 0.9 0.00 0.00 0.00 88 1015.2
20260502163756 54 47 0.9 0.9 0.00 0.00 0.00 89 1015.4
20260502163253 54 27 0.0 0.0 0.00 0.00 0.00 90 1015.3
20260502162750 54 26 0.0 0.0 0.00 0.00 0.00 89 1015.4
20260502162246 54 26 0.0 0.0 0.00 0.00 0.00 90 1015.4
20260502161744 53 56 0.0 0.0 0.00 0.00 0.00 92 1015.5
20260502161240 53 49 0.0 0.0 0.00 0.00 0.00 93 1015.2
20260502160738 53 48 0.0 0.0 0.00 0.00 0.00 93 1015.2
20260502160237 53 47 0.0 0.0 0.00 0.00 0.00 93 1015.3
20260502152206 51 352 0.0 0.0 0.00 0.00 0.00 96 1015.4
20260502151704 51 353 0.0 0.0 0.00 0.00 0.00 97 1015.3
20260502151201 51 353 0.0 0.0 0.00 0.00 0.00 97 1015.2
20260502150658 50 353 0.0 0.0 0.00 0.00 0.00 97 1015.5
20260502150154 51 353 0.0 0.0 0.00 0.00 0.00 96 1015.2
20260502140118 50 42 0.0 0.0 0.00 0.00 0.00 97 1015.1
20260502130543 50 52 0.0 0.0 0.00 0.00 0.00 98 1014.9
20260502123526 49 52 0.0 0.0 0.00 0.00 0.00 98 1015.2
20260502123022 49 52 0.0 0.0 0.00 0.00 0.00 98 1015.2
20260502122519 49 52 0.0 0.0 0.00 0.00 0.00 98 1015.2
20260502122017 49 52 0.0 0.0 0.00 0.00 0.00 98 1015.1
20260502121514 49 52 0.0 0.0 0.00 0.00 0.00 98 1015.4
20260502121011 49 52 0.0 0.0 0.00 0.00 0.00 99 1015.3
20260502120507 49 52 0.0 0.0 0.00 0.00 0.00 99 1015.1
20260502115502 49 52 0.0 0.0 0.00 0.00 0.00 99 1015.2
20260502114958 48 52 0.0 0.0 0.00 0.00 0.00 99 1015.2
20260502114455 48 52 0.0 0.0 0.00 0.00 0.00 99 1015.2
20260502113952 48 52 0.0 0.0 0.00 0.00 0.00 99 1015.4
20260502113449 48 52 0.0 0.0 0.00 0.00 0.00 99 1015.3
20260502112948 49 52 0.0 0.0 0.00 0.00 0.00 99 1015.2
20260502112445 49 52 0.0 0.0 0.00 0.00 0.00 98 1015.2
20260502111942 49 52 0.0 0.0 0.00 0.00 0.00 98 1015.1
20260502111439 49 52 0.0 0.0 0.00 0.00 0.00 98 1015.1
20260502110937 49 52 0.0 0.0 0.00 0.00 0.00 98 1015.0
20260502110435 49 52 0.0 0.0 0.00 0.00 0.00 97 1014.7
20260502105931 49 52 0.0 0.0 0.00 0.00 0.00 97 1014.8
20260502105429 49 54 0.0 0.0 0.00 0.00 0.00 97 1014.9
20260502104927 49 359 0.0 0.0 0.00 0.00 0.00 97 1015.2
20260502104424 49 358 0.0 0.0 0.00 0.00 0.00 98 1015.4
20260502103921 49 358 0.0 0.0 0.00 0.00 0.00 98 1015.6
20260502103419 49 358 0.0 0.0 0.00 0.00 0.00 98 1015.9
20260502102915 49 358 0.0 0.0 0.00 0.00 0.00 98 1015.7
20260502102412 49 358 0.0 0.0 0.00 0.00 0.00 98 1015.9
20260502101909 49 359 0.0 0.0 0.00 0.00 0.00 98 1015.8
20260502101408 49 354 0.0 0.0 0.00 0.00 0.00 98 1015.8
20260502100905 49 359 0.0 0.0 0.00 0.00 0.00 98 1015.8
20260502100405 49 359 0.0 0.0 0.00 0.00 0.00 98 1015.7
20260502091338 49 354 0.0 0.0 0.00 0.00 0.00 96 1015.0
20260502090836 49 354 0.0 0.0 0.00 0.00 0.00 95 1015.2
20260502090332 50 354 0.0 0.0 0.00 0.00 0.00 95 1015.2
20260502071227 51 354 0.0 0.0 0.00 0.00 0.00 92 1015.3
20260502070726 51 354 0.0 0.0 0.00 0.00 0.00 92 1015.0
20260502070223 51 354 0.0 0.0 0.00 0.00 0.00 91 1015.0
20260502065721 51 354 0.0 0.0 0.00 0.00 0.00 91 1015.0
20260502065219 52 354 0.0 0.0 0.00 0.00 0.00 91 1015.0
20260502064717 52 354 0.0 0.0 0.00 0.00 0.00 90 1015.1
20260502064215 52 354 0.0 0.0 0.00 0.00 0.00 90 1015.0
20260502063712 52 354 0.0 0.0 0.00 0.00 0.00 89 1014.8
20260502063210 52 354 0.0 0.0 0.00 0.00 0.00 89 1014.8
20260502062706 53 354 0.0 0.0 0.00 0.00 0.00 89 1014.7
20260502062204 53 354 0.0 0.0 0.00 0.00 0.00 88 1014.8
20260502061703 53 354 0.0 0.0 0.00 0.00 0.00 88 1015.0
20260502061159 53 354 0.0 0.0 0.00 0.00 0.00 87 1014.8
20260502060654 53 39 0.0 0.0 0.00 0.00 0.00 88 1015.0
20260502060151 53 40 0.0 0.0 0.00 0.00 0.00 87 1015.1
20260502055649 54 40 0.0 0.0 0.00 0.00 0.00 87 1015.0
20260502055147 54 40 0.0 0.0 0.00 0.00 0.00 87 1014.8
20260502054646 54 40 0.0 0.0 0.00 0.00 0.00 87 1014.8
20260502054142 54 39 0.0 0.0 0.00 0.00 0.00 86 1014.8
20260502053640 54 40 0.0 0.0 0.00 0.00 0.00 86 1015.0
20260502053137 55 40 0.0 0.0 0.00 0.00 0.00 85 1014.9
20260502052635 55 40 0.0 0.0 0.00 0.00 0.00 85 1014.8
20260502052133 55 40 0.0 0.0 0.00 0.00 0.00 84 1015.0
20260502051631 55 40 0.0 0.0 0.00 0.00 0.00 84 1014.8
20260502051129 55 40 0.0 0.0 0.00 0.00 0.00 83 1014.8
20260502050625 56 40 0.0 0.0 0.00 0.00 0.00 82 1015.0
20260502050122 56 41 0.0 0.0 0.00 0.00 0.00 83 1014.8
20260502045618 56 40 0.0 0.0 0.00 0.00 0.00 83 1014.8
20260502045115 56 40 0.0 0.0 0.00 0.00 0.00 82 1014.8
20260502044612 57 343 0.0 0.0 0.00 0.00 0.00 82 1014.7
20260502044109 57 344 0.0 0.0 0.00 0.00 0.00 82 1014.7
20260502043606 57 344 0.0 0.0 0.00 0.00 0.00 82 1014.5
20260502043102 57 343 0.0 0.0 0.00 0.00 0.00 81 1014.5
20260502042557 57 343 0.9 0.9 0.00 0.00 0.00 80 1014.5
20260502042055 58 343 0.0 0.9 0.00 0.00 0.00 80 1014.3
20260502041552 59 348 0.0 0.0 0.00 0.00 0.00 79 1014.2
20260502041049 59 348 0.0 0.0 0.00 0.00 0.00 78 1014.4
20260502040546 59 355 0.0 0.0 0.00 0.00 0.00 77 1014.2
20260502040043 59 357 0.0 0.0 0.00 0.00 0.00 75 1014.1
20260502035538 60 357 0.0 0.0 0.00 0.00 0.00 74 1013.9
20260502035036 60 356 0.0 0.0 0.00 0.00 0.00 74 1013.7
20260502034535 60 356 0.0 0.0 0.00 0.00 0.00 73 1013.8
20260502034032 61 45 0.0 0.0 0.00 0.00 0.00 71 1013.5
20260502033530 61 45 0.0 0.0 0.00 0.00 0.00 71 1013.6
20260502033027 61 46 0.0 0.0 0.00 0.00 0.00 70 1013.4
20260502032523 62 45 0.0 0.0 0.00 0.00 0.00 70 1013.4
20260502032020 62 46 0.0 0.0 0.00 0.00 0.00 69 1013.6
20260502031518 62 18 0.0 0.0 0.00 0.00 0.00 68 1013.4
20260502031016 63 46 0.0 0.0 0.00 0.00 0.00 68 1013.1
20260502030514 63 47 0.0 0.9 0.00 0.00 0.00 67 1013.1
20260502030012 63 25 0.0 0.0 0.00 0.00 0.00 65 1013.1
20260502025509 64 47 0.0 0.0 0.00 0.00 0.00 65 1013.1
20260502025007 64 45 0.0 0.0 0.00 0.00 0.00 65 1013.1
20260502024504 64 47 0.0 0.0 0.00 0.00 0.00 64 1012.9
20260502024003 64 27 0.0 0.0 0.00 0.00 0.00 64 1012.8
20260502023500 64 39 0.0 0.0 0.00 0.00 0.00 63 1012.7
20260502022957 64 46 0.0 0.0 0.00 0.00 0.00 63 1012.6
20260502022453 65 61 0.0 0.0 0.00 0.00 0.00 63 1012.7
20260502021950 65 350 0.9 1.7 0.00 0.00 0.00 63 1012.4
20260502021448 66 36 0.0 0.0 0.00 0.00 0.00 63 1012.4
20260502020944 66 72 0.9 0.9 0.00 0.00 0.00 62 1012.3
20260502020443 66 321 0.0 1.7 0.00 0.00 0.00 63 1012.4
20260502015939 66 42 0.9 0.9 0.00 0.00 0.00 63 1012.4
20260502015437 66 56 0.9 0.9 0.00 0.00 0.00 63 1012.4
20260502014933 67 55 0.9 0.9 0.00 0.00 0.00 62 1012.4
20260502014430 67 37 0.0 0.9 0.00 0.00 0.00 61 1012.6
20260502013927 68 46 0.0 0.9 0.00 0.00 0.00 60 1012.5
20260502013422 70 77 0.9 0.9 0.00 0.00 0.00 58 1012.4
20260502012919 69 47 0.9 0.9 0.00 0.00 0.00 59 1012.5
20260502012417 69 2 0.9 0.9 0.00 0.00 0.00 58 1012.7
20260502011914 69 67 0.9 1.7 0.00 0.00 0.00 58 1012.4
20260502011410 70 42 0.0 0.0 0.00 0.00 0.00 58 1012.7
20260502010908 70 27 0.0 0.0 0.00 0.00 0.00 57 1012.5
20260502010404 70 15 0.0 0.0 0.00 0.00 0.00 57 1012.6
20260502005900 71 42 0.0 0.9 0.00 0.00 0.00 57 1012.5
20260502005358 72 51 0.9 1.7 0.00 0.00 0.00 55 1012.5
20260502004856 74 34 0.0 0.0 0.00 0.00 0.00 53 1012.6
20260502004351 75 21 0.0 0.0 0.00 0.00 0.00 53 1012.7
20260502003849 75 22 0.9 1.7 0.00 0.00 0.00 53 1012.5
20260502003346 76 5 0.9 0.9 0.00 0.00 0.00 51 1012.4
20260502002842 76 283 1.7 1.7 0.00 0.00 0.00 51 1012.7
20260502002340 78 5 0.0 0.0 0.00 0.00 0.00 50 1012.5
20260502001837 79 6 0.0 0.9 0.00 0.00 0.00 48 1012.6
20260502001335 79 29 0.0 0.9 0.00 0.00 0.00 47 1012.2
20260502000832 79 326 0.9 1.7 0.00 0.00 0.00 48 1012.5
20260502000332 80 28 0.0 0.9 0.00 0.00 0.00 47 1012.3
20260501235826 77 43 0.9 0.9 0.00 0.00 0.00 50 1012.2
20260501235322 78 0 0.9 0.9 0.00 0.00 0.00 49 1012.5
20260501234817 77 28 0.0 0.0 0.00 0.00 0.00 51 1012.4
20260501234315 79 8 0.0 0.0 0.00 0.00 0.00 49 1012.4
20260501233813 79 342 0.0 0.0 0.00 0.00 0.00 48 1012.4
20260501233310 78 345 0.9 0.9 0.00 0.00 0.00 48 1012.3
20260501232806 77 358 0.9 0.9 0.00 0.00 0.00 48 1012.3
20260501232305 79 44 0.0 0.0 0.00 0.00 0.00 48 1012.4
20260501231800 79 353 0.0 0.9 0.00 0.00 0.00 47 1012.6
20260501231258 80 2 0.9 0.9 0.00 0.00 0.00 45 1012.1
20260501230756 79 65 0.9 0.9 0.00 0.00 0.00 46 1012.5
20260501230255 80 358 0.9 1.7 0.00 0.00 0.00 47 1012.7
20260501225752 80 39 0.9 1.7 0.00 0.00 0.00 47 1012.4
20260501225250 79 40 0.0 0.0 0.00 0.00 0.00 48 1012.7
20260501224745 80 70 2.6 2.6 0.00 0.00 0.00 48 1012.6
20260501224243 79 28 0.0 0.9 0.00 0.00 0.00 48 1012.5
20260501223739 79 46 0.0 0.9 0.00 0.00 0.00 49 1012.7
20260501223235 79 50 0.0 0.0 0.00 0.00 0.00 48 1012.8
20260501222731 79 45 0.0 0.0 0.00 0.00 0.00 49 1012.8
20260501222229 80 354 0.0 0.9 0.00 0.00 0.00 49 1012.9
20260501221726 80 74 0.0 0.0 0.00 0.00 0.00 48 1012.9
20260501221223 79 32 0.0 0.9 0.00 0.00 0.00 49 1012.8
20260501220721 80 43 0.9 0.9 0.00 0.00 0.00 49 1013.1
20260501220218 80 323 0.9 1.7 0.00 0.00 0.00 48 1013.2
20260501215715 80 36 0.0 0.0 0.00 0.00 0.00 48 1013.0
20260501215210 80 30 0.0 0.0 0.00 0.00 0.00 48 1013.0
20260501214705 80 46 0.0 0.0 0.00 0.00 0.00 48 1013.1
20260501214201 79 324 0.0 0.9 0.00 0.00 0.00 48 1013.2
20260501213658 79 38 0.9 0.9 0.00 0.00 0.00 49 1013.3
20260501213153 77 74 0.0 0.0 0.00 0.00 0.00 50 1013.3
20260501212650 79 57 0.9 0.9 0.00 0.00 0.00 48 1013.4
20260501212147 78 56 0.0 0.9 0.00 0.00 0.00 48 1013.6
20260501211644 78 10 0.0 0.9 0.00 0.00 0.00 49 1013.4
20260501211141 78 302 0.9 1.7 0.00 0.00 0.00 49 1013.7
20260501210638 77 305 0.9 0.9 0.00 0.00 0.00 49 1013.6
20260501210135 78 46 0.9 0.9 0.00 0.00 0.00 49 1013.9
20260501205631 77 329 0.0 0.9 0.00 0.00 0.00 49 1013.7
20260501205129 76 35 0.9 0.9 0.00 0.00 0.00 49 1013.9
20260501204625 74 316 0.0 0.0 0.00 0.00 0.00 51 1013.8
20260501204121 75 326 0.9 1.7 0.00 0.00 0.00 50 1013.9
20260501203618 75 3 0.0 0.0 0.00 0.00 0.00 49 1013.9
20260501203115 75 3 0.0 0.9 0.00 0.00 0.00 48 1013.7
20260501202613 76 4 0.0 0.0 0.00 0.00 0.00 49 1013.9
20260501202109 76 3 0.0 0.0 0.00 0.00 0.00 48 1013.9
20260501201606 77 26 0.0 0.9 0.00 0.00 0.00 47 1014.0
20260501201102 75 38 0.9 1.7 0.00 0.00 0.00 49 1013.9
20260501200600 73 320 0.9 0.9 0.00 0.00 0.00 50 1014.1
20260501200057 74 330 0.0 0.0 0.00 0.00 0.00 49 1013.9
20260501195554 75 10 0.0 0.9 0.00 0.00 0.00 50 1014.2
20260501195050 73 0 0.0 0.9 0.00 0.00 0.00 50 1014.5
20260501194545 73 332 0.9 1.7 0.00 0.00 0.00 49 1014.2
20260501194041 72 24 0.0 0.0 0.00 0.00 0.00 51 1014.4
20260501193539 73 56 0.0 0.9 0.00 0.00 0.00 49 1014.4
20260501193038 73 27 0.0 0.9 0.00 0.00 0.00 51 1014.5
20260501192534 73 49 0.9 0.9 0.00 0.00 0.00 52 1014.3
20260501192032 73 16 0.9 0.9 0.00 0.00 0.00 51 1014.5
20260501191529 69 344 0.0 0.0 0.00 0.00 0.00 56 1014.6
20260501191026 71 359 0.0 0.9 0.00 0.00 0.00 53 1014.8
20260501190521 71 323 0.9 0.9 0.00 0.00 0.00 54 1014.7
20260501190017 71 71 0.0 0.9 0.00 0.00 0.00 55 1015.0
20260501185513 71 72 0.0 0.9 0.00 0.00 0.00 55 1014.7
20260501185009 71 65 0.9 0.9 0.00 0.00 0.00 56 1014.9
20260501184506 70 302 0.0 0.9 0.00 0.00 0.00 56 1015.0
20260501184001 69 0 0.0 0.0 0.00 0.00 0.00 56 1015.0
20260501183458 68 0 0.9 0.9 0.00 0.00 0.00 59 1014.9
20260501182954 69 8 0.0 0.0 0.00 0.00 0.00 56 1015.2
20260501182451 70 38 0.0 0.0 0.00 0.00 0.00 55 1015.2
20260501181947 69 23 0.0 0.0 0.00 0.00 0.00 58 1015.0
20260501181445 67 5 0.0 0.0 0.00 0.00 0.00 63 1015.1
20260501180942 67 41 0.0 0.9 0.00 0.00 0.00 64 1014.9
20260501180439 67 42 0.9 0.9 0.00 0.00 0.00 63 1015.1
20260501175935 66 26 0.0 0.0 0.00 0.00 0.00 64 1015.0
20260501175432 66 22 0.0 0.0 0.00 0.00 0.00 66 1015.0
20260501174929 66 22 0.0 0.0 0.00 0.00 0.00 66 1015.1
20260501174427 65 321 0.9 0.9 0.00 0.00 0.00 66 1015.1
20260501173924 65 39 0.0 0.0 0.00 0.00 0.00 66 1015.0
20260501173421 65 39 0.0 0.9 0.00 0.00 0.00 66 1015.1
20260501172916 66 39 0.0 0.0 0.00 0.00 0.00 66 1015.2
20260501172413 64 342 0.9 0.9 0.00 0.00 0.00 67 1015.3
20260501171908 64 41 0.0 0.0 0.00 0.00 0.00 68 1015.2
20260501171404 64 42 0.0 0.0 0.00 0.00 0.00 68 1015.2